Stations météo

réclame
Mon MeteoGroup
Herrera del Duque, Espagne (8264): Température de l'air & dewpoint: 12.08.2018 02:00:00 - 18.08.2018 02:00:00 (CEST)Herrera del Duque, Espagne (8264): Vitesse du vent & gusts: 12.08.2018 02:00:00 - 18.08.2018 02:00:00 (CEST)Herrera del Duque, Espagne (8264): Direction du vent: 12.08.2018 02:00:00 - 18.08.2018 02:00:00 (CEST)Herrera del Duque, Espagne (8264): reduced air pressure: 12.08.2018 02:00:00 - 18.08.2018 02:00:00 (CEST)Herrera del Duque, Espagne (8264): visibility: 12.08.2018 02:00:00 - 18.08.2018 02:00:00 (CEST)Herrera del Duque, Espagne (8264): Ensoleillement: 12.08.2018 02:00:00 - 18.08.2018 02:00:00 (CEST)Herrera del Duque, Espagne (8264): Quantités de précipitations: 12.08.2018 02:00:00 - 18.08.2018 02:00:00 (CEST)
Date & Time tt [°C] td [°C] ff [km/h] ff [knt] fx [km/h] fx [knt] dd ppp [hPa] vv [km] sd [min] rr [mm]
18.08.2018 02:00:00 23,3 13,2 2 1 5 3 SE - - 0 -
18.08.2018 01:00:00 25,4 10,5 5 3 7 4 SW - - 0 0,0
18.08.2018 00:00:00 25,7 11,8 3 2 8 4 E - - 0 0,0
17.08.2018 23:00:00 27,2 11,3 5 3 8 4 SW - - 0 0,0
17.08.2018 22:00:00 28,2 10,9 1 1 9 5 SSW - - 0 0,0
17.08.2018 21:00:00 30,6 8,9 4 2 14 8 WSW - - 27 0,0
17.08.2018 20:00:00 32,7 8,9 9 5 16 9 W - - 60 -
17.08.2018 19:00:00 33,4 8,8 12 6 20 11 NW 1011,5 - 60 0,0
17.08.2018 18:00:00 33,7 9,7 4 2 22 12 N 1011,5 - 56 0,0
17.08.2018 17:00:00 33,5 10,2 5 3 19 10 WNW 1012,1 - 60 0,0
17.08.2018 16:00:00 31,9 11,1 5 3 21 11 W 1013,4 - 60 0,0
17.08.2018 15:00:00 31,2 9,4 7 4 15 8 N 1014,3 - 60 0,0
17.08.2018 14:00:00 30,4 11,9 5 3 14 8 W 1014,8 - 60 -
17.08.2018 13:00:00 29,1 14,9 5 3 11 6 WNW 1015,4 - 60 0,0
17.08.2018 12:00:00 27,6 14,6 4 2 8 5 ENE - - 60 0,0
17.08.2018 11:00:00 25,5 16,1 4 2 9 5 N - - 60 0,0
17.08.2018 10:00:00 23,1 16,2 3 1 6 3 NW - - 60 0,0
17.08.2018 09:00:00 20,7 16,9 3 2 10 5 NNW - - 59 0,0
17.08.2018 08:00:00 19,4 15,3 5 3 9 5 SSE - - 0 -
17.08.2018 07:00:00 19,0 16,2 2 1 5 3 NNW - - 0 0,0
17.08.2018 06:00:00 19,4 15,9 1 1 7 4 SSW - - 0 0,0
17.08.2018 05:00:00 19,9 16,7 3 2 9 5 S - - 0 0,0
17.08.2018 04:00:00 20,1 16,9 2 1 16 9 SSE - - 0 0,0
17.08.2018 03:00:00 20,8 15,8 5 3 25 14 WSW - - 0 0,0
17.08.2018 02:00:00 20,8 15,1 18 10 35 19 SE - - 0 -
17.08.2018 01:00:00 21,5 15,6 16 8 30 16 S - - 0 1,8
17.08.2018 00:00:00 20,7 17,3 13 7 23 12 WNW - - 0 0,4
16.08.2018 23:00:00 21,1 16,1 8 4 49 26 ENE - - 0 10,4
16.08.2018 22:00:00 29,5 9,1 14 8 34 19 S - - 0 0,0
16.08.2018 21:00:00 31,5 9,1 9 5 19 10 WSW - - 24 0,0
16.08.2018 20:00:00 - - - - - - - - - - -
16.08.2018 19:00:00 32,4 8,6 12 6 23 12 W - - 47 0,0
16.08.2018 18:00:00 34,7 6,8 14 7 27 15 NW 1010,7 - 60 0,0
16.08.2018 17:00:00 34,4 7,4 15 8 28 15 W 1011,0 - 60 0,0
16.08.2018 16:00:00 33,7 7,6 10 6 29 15 SW 1011,6 - 60 0,0
16.08.2018 15:00:00 33,0 7,7 10 5 25 14 WNW 1012,5 - 60 0,0
16.08.2018 14:00:00 31,9 8,3 11 6 27 15 W 1013,3 - 60 -
16.08.2018 13:00:00 31,1 6,2 11 6 23 12 W 1014,0 - 60 0,0
16.08.2018 12:00:00 29,2 6,6 10 6 20 11 W - - 60 0,0
16.08.2018 11:00:00 28,0 6,2 6 3 14 8 NW - - 60 0,0
16.08.2018 10:00:00 26,2 6,3 4 2 12 7 NNE - - 51 0,0
16.08.2018 09:00:00 22,2 9,0 3 1 6 3 NNE - - 25 0,0
16.08.2018 08:00:00 21,5 8,8 1 1 9 5 NW - - 0 -
16.08.2018 07:00:00 22,6 9,1 4 2 9 5 SSW - - 0 0,0
16.08.2018 06:00:00 23,5 9,9 3 1 18 10 NNW - - 0 0,0
16.08.2018 05:00:00 24,4 9,9 5 3 12 7 WSW - - 0 0,0
16.08.2018 04:00:00 25,1 9,4 5 3 25 14 W - - 0 0,0
16.08.2018 03:00:00 26,0 7,6 10 5 25 13 SW - - 0 0,0
16.08.2018 02:00:00 26,9 6,9 14 8 29 16 SW - - 0 -
16.08.2018 01:00:00 27,8 6,0 13 7 33 18 SW - - 0 0,0
16.08.2018 00:00:00 29,3 4,0 20 11 37 20 SW - - 0 0,0
15.08.2018 23:00:00 30,4 0,9 16 9 29 16 SW - - 0 0,0
15.08.2018 22:00:00 31,0 3,9 13 7 22 12 SSW - - 0 0,0
15.08.2018 21:00:00 33,5 2,4 9 5 18 10 SW - - 55 0,0
15.08.2018 20:00:00 35,0 3,6 8 4 18 10 WSW 1010,1 - 54 -
15.08.2018 19:00:00 35,9 3,2 13 7 24 13 WSW 1010,0 - 60 0,0
15.08.2018 18:00:00 36,2 3,4 9 5 27 15 WNW 1010,3 - 60 0,0
15.08.2018 17:00:00 36,0 3,3 11 6 23 13 S - - 60 0,0
15.08.2018 16:00:00 35,5 2,9 12 7 31 17 WSW 1011,6 - 60 0,0
15.08.2018 15:00:00 34,5 4,1 13 7 27 15 W 1012,5 - 60 0,0
15.08.2018 14:00:00 34,2 3,9 9 5 21 11 WSW 1013,2 - 60 -
15.08.2018 13:00:00 33,0 1,9 11 6 24 13 SSW 1013,8 - 60 0,0
15.08.2018 12:00:00 31,0 5,4 6 4 16 9 NNW - - 60 0,0
15.08.2018 11:00:00 28,7 6,2 5 3 11 6 WNW - - 60 0,0
15.08.2018 10:00:00 26,3 5,8 2 1 9 5 E - - 60 0,0
15.08.2018 09:00:00 22,9 7,8 2 1 6 4 NW - - 60 0,0
15.08.2018 08:00:00 18,9 3,5 5 3 10 5 SW - - 13 -
15.08.2018 07:00:00 19,3 3,1 3 2 12 7 NE - - 0 0,0
15.08.2018 06:00:00 19,3 3,1 1 1 6 3 NNW - - 0 0,0
15.08.2018 05:00:00 19,8 5,5 2 1 5 3 ESE - - 0 0,0
15.08.2018 04:00:00 21,0 3,7 2 1 5 3 ENE - - 0 0,0
15.08.2018 03:00:00 21,5 3,7 4 2 8 5 SSE - - 0 0,0
15.08.2018 02:00:00 22,8 4,4 3 1 5 3 SW - - 0 -
15.08.2018 01:00:00 24,6 3,9 4 2 6 4 S - - 0 0,0
15.08.2018 00:00:00 26,1 3,4 2 1 8 4 S - - 0 0,0
14.08.2018 23:00:00 27,8 2,8 4 2 10 5 S - - 0 0,0
14.08.2018 22:00:00 29,7 2,9 3 1 11 6 S - - 2 0,0
14.08.2018 21:00:00 33,4 0,2 6 3 17 9 WSW 1012,0 - 60 0,0
14.08.2018 20:00:00 35,3 1,5 9 5 23 13 SW 1011,5 - 60 -
14.08.2018 19:00:00 36,0 2,1 9 5 24 13 WNW 1011,6 - 60 0,0
14.08.2018 18:00:00 35,9 0,9 10 6 23 12 NW 1011,9 - 60 0,0
14.08.2018 17:00:00 35,8 3,0 14 8 25 13 WNW 1012,3 - 60 0,0
14.08.2018 16:00:00 35,3 3,8 9 5 23 12 NW 1012,7 - 60 0,0
14.08.2018 15:00:00 33,7 6,1 10 5 20 11 WNW - - 60 0,0
14.08.2018 14:00:00 33,0 7,0 10 5 18 10 WNW 1014,1 - 60 -
14.08.2018 13:00:00 31,8 8,8 7 4 18 10 NW 1014,6 - 60 0,0
14.08.2018 12:00:00 29,5 9,1 4 2 15 8 NNE - - 60 0,0
14.08.2018 11:00:00 26,8 9,6 4 2 9 5 NNE - - 60 0,0
14.08.2018 10:00:00 23,7 9,7 2 1 6 4 ENE - - 60 0,0
14.08.2018 09:00:00 20,8 9,1 4 2 6 4 NNE - - 60 0,0
14.08.2018 08:00:00 17,1 7,5 4 2 8 4 ENE - - 16 -
14.08.2018 07:00:00 18,4 8,7 2 1 6 3 SW - - 0 0,0
14.08.2018 06:00:00 18,7 7,2 3 2 6 3 ESE - - 0 0,0
14.08.2018 05:00:00 19,0 6,8 2 1 5 3 W - - 0 0,0
14.08.2018 04:00:00 21,4 8,3 1 1 10 6 ENE - - 0 0,0
14.08.2018 03:00:00 23,5 6,8 6 4 14 7 WSW - - 0 0,0
14.08.2018 02:00:00 24,5 6,3 5 3 16 9 S - - 0 -
14.08.2018 01:00:00 25,9 5,5 9 5 24 13 W - - 0 0,0
14.08.2018 00:00:00 27,1 4,8 16 9 28 15 W - - 0 0,0
13.08.2018 23:00:00 27,8 6,0 10 5 20 11 W - - 0 0,0
13.08.2018 22:00:00 28,4 7,6 6 3 22 12 W - - 4 0,0
13.08.2018 21:00:00 30,8 7,8 12 7 23 12 WSW 1010,7 - 60 0,0
13.08.2018 20:00:00 32,4 7,3 13 7 27 14 W 1010,3 - 60 -
13.08.2018 19:00:00 32,9 8,4 13 7 27 14 W 1010,3 - 60 0,0
13.08.2018 18:00:00 32,8 9,6 14 7 29 15 WSW 1010,6 20 60 0,0
13.08.2018 17:00:00 33,0 4,6 13 7 30 16 WSW 1011,1 20 60 0,0
13.08.2018 16:00:00 32,1 0,2 17 9 27 15 W 1011,7 20 60 0,0
13.08.2018 15:00:00 30,8 9,7 15 8 30 16 W 1012,5 20 60 0,0
13.08.2018 14:00:00 29,8 9,8 16 9 27 15 WSW 1013,0 - 60 -
13.08.2018 13:00:00 28,8 10,9 12 6 26 14 W 1013,6 - 60 0,0
13.08.2018 12:00:00 26,8 11,7 10 6 19 11 WNW 1014,4 - 60 0,0
13.08.2018 11:00:00 24,5 12,8 9 5 17 9 W - - 60 0,0
13.08.2018 10:00:00 22,8 13,0 10 5 18 10 W - - 60 0,0
13.08.2018 09:00:00 21,1 13,3 6 4 14 7 WSW - - 60 0,0
13.08.2018 08:00:00 20,1 13,6 3 2 14 7 SSE - - 11 -
13.08.2018 07:00:00 20,2 13,4 5 3 18 10 W - - 0 0,0
13.08.2018 06:00:00 20,9 12,8 5 3 19 10 NE 1013,5 - 0 0,0
13.08.2018 05:00:00 22,6 12,3 9 5 23 13 WSW - - 0 0,0
13.08.2018 04:00:00 22,9 10,7 10 6 16 9 NNW - - 0 0,0
13.08.2018 03:00:00 24,6 8,6 5 3 16 9 NW - - 0 0,0
13.08.2018 02:00:00 26,0 7,1 9 5 17 9 W - - 0 -
13.08.2018 01:00:00 27,1 6,5 4 2 10 6 WNW - - 0 0,0
13.08.2018 00:00:00 28,4 5,9 6 4 19 11 SW - - 0 0,0
12.08.2018 23:00:00 29,8 5,1 11 6 24 13 WNW 1011,8 - 0 0,0
12.08.2018 22:00:00 30,9 5,3 15 8 29 15 W 1010,8 - 0 0,0
12.08.2018 21:00:00 32,3 5,0 11 6 27 15 WSW 1010,2 - 40 0,0
12.08.2018 20:00:00 34,7 3,2 17 9 33 18 W 1009,8 20 60 -
12.08.2018 19:00:00 35,6 5,0 16 8 32 18 W 1009,8 20 60 0,0
12.08.2018 18:00:00 35,9 5,1 16 9 36 20 WNW 1010,1 20 60 0,0
12.08.2018 17:00:00 36,2 8,1 16 9 31 17 W 1010,2 20 60 0,0
12.08.2018 16:00:00 36,1 9,6 13 7 37 20 SW 1011,1 - 45 0,0
12.08.2018 15:00:00 34,6 10,4 8 4 32 18 SW 1012,0 - 41 0,0
12.08.2018 14:00:00 34,7 10,5 17 9 28 15 WSW 1012,8 20 60 -
12.08.2018 13:00:00 33,3 11,8 14 8 26 14 SW 1013,5 - 60 0,0
12.08.2018 12:00:00 32,4 13,1 13 7 25 14 SSW 1013,8 - 60 0,0
12.08.2018 11:00:00 30,7 13,0 10 5 20 11 SSW - - 60 0,0
12.08.2018 10:00:00 28,3 11,8 3 2 8 4 NNW - - 60 0,0
12.08.2018 09:00:00 24,8 11,4 3 2 8 5 W - - 52 0,0
12.08.2018 08:00:00 23,5 12,5 6 3 11 6 W - - 0 -
12.08.2018 07:00:00 26,1 11,8 5 3 15 8 E - - 0 0,0
12.08.2018 06:00:00 24,2 11,5 4 2 8 5 E - - 0 0,0
12.08.2018 05:00:00 24,5 11,1 4 2 7 4 S - - 0 0,0
12.08.2018 04:00:00 25,8 10,8 4 2 13 7 SW - - 0 0,0
12.08.2018 03:00:00 26,7 9,6 5 3 10 6 NNW 1014,5 - 0 0,0
12.08.2018 02:00:00 29,4 10,0 4 2 22 12 ESE 1014,3 - 0 -

tt = Température de l'air
td = dewpoint
ff = Vitesse du vent
fx = gusts
dd = Direction du vent
ppp = reduced air pressure
vv = visibility
sd = Ensoleillement
rr = Quantités de précipitations

stations d'obs. à proximité